Date String (YYYY-MM-DD hh:mm:ss) UTC,Instrument flags,absolute air pressure of the measurement (hPa),sample flow rate (lpm),inlet stack bypass flow (lpm),air temperature of the measurement (°C),ambient temperature measured by the external sensor (°C),aerosol sample conditioner tube jacket temperature (°C),OPC LED temperature (°C),internal box temperature (°C),relative humidity of the measurement (%),span deviation,mass concentration of particles derived from Lorenz-Mie calculation of OPC scattering (μg/m³),mass concentration of particles derived from Lorenz-Mie calculation of OPC scattering (μg/m³),mass concentration of particles derived from Lorenz-Mie calculation of OPC scattering (μg/m³)
DateTimeUTC,F1_M11,P_M11,Q1_M11,Q2_M11,T1_M11,T2_M11,T3_M11,T4_M11,T5_M11,U1_M11,ZSPAN_M11,X2_M11,X0_M11,X1_M11
2023-10-19 08:00:00,SystemResetWarning,0833.4,5.00,000.00,029.0,027.5,000.0,037.5,030.6,13.7,0000.0,0003.32,0012.76,0001.90
2023-10-19 08:01:00,SystemResetWarning,0833.4,5.00,000.00,029.0,027.5,000.0,037.5,030.6,13.7,0000.0,0003.35,0012.36,0001.91
2023-10-19 08:02:00,SystemResetWarning,0833.4,5.00,000.00,029.0,027.5,000.0,037.5,030.6,13.7,0000.0,0003.32,0013.24,0001.92
2023-10-19 08:03:00,SystemResetWarning,0833.4,5.00,000.00,029.0,027.5,000.0,037.5,030.6,13.8,0000.0,0003.30,0013.97,0001.92
2023-10-19 08:04:00,SystemResetWarning,0833.3,4.99,000.00,029.0,027.5,000.0,037.5,030.5,13.9,0000.0,0003.30,0014.18,0001.92
2023-10-19 08:05:00,SystemResetWarning,0833.4,5.00,000.00,029.0,027.4,000.0,037.5,030.5,13.8,0000.0,0003.35,0014.30,0001.92
2023-10-19 08:06:00,SystemResetWarning,0833.4,5.01,000.00,029.0,027.4,000.0,037.5,030.5,13.8,0000.0,0003.34,0014.32,0001.92
2023-10-19 08:07:00,SystemResetWarning,0833.4,5.00,000.00,029.0,027.4,000.0,037.4,030.5,13.8,0000.0,0003.40,0014.83,0001.92
2023-10-19 08:08:00,SystemResetWarning,0833.4,4.99,000.00,028.9,027.4,000.0,037.4,030.5,13.8,0000.0,0003.36,0014.69,0001.92
2023-10-19 08:09:00,SystemResetWarning,0833.3,5.00,000.00,028.9,027.4,000.0,037.4,030.5,13.8,0000.0,0003.31,0013.96,0001.92
2023-10-19 08:10:00,SystemResetWarning,0833.3,5.00,000.00,028.9,027.4,000.0,037.4,030.5,13.8,0000.0,0003.28,0013.21,0001.93
2023-10-19 08:11:00,SystemResetWarning,0833.3,5.00,000.00,028.9,027.4,000.0,037.4,030.5,13.9,0000.0,0003.27,0012.89,0001.95
2023-10-19 08:12:00,SystemResetWarning,0833.3,5.00,000.00,028.9,027.4,000.0,037.4,030.5,13.9,0000.0,0003.26,0013.79,0001.96
2023-10-19 08:13:00,SystemResetWarning,0833.3,5.00,000.00,028.9,027.4,000.0,037.4,030.6,13.9,0000.0,0003.27,0013.28,0001.97
2023-10-19 08:14:00,SystemResetWarning,0833.3,5.00,000.00,029.0,027.5,000.0,037.4,030.6,13.9,0000.0,0003.29,0013.18,0001.97
2023-10-19 08:15:00,SystemResetWarning,0833.3,4.99,000.00,029.0,027.5,000.0,037.4,030.6,13.8,0000.0,0003.30,0013.25,0001.97
2023-10-19 08:16:00,SystemResetWarning,0833.3,4.99,000.00,029.0,027.5,000.0,037.4,030.6,13.8,0000.0,0003.26,0013.09,0001.96
2023-10-19 08:17:00,SystemResetWarning,0833.3,5.01,000.00,029.0,027.5,000.0,037.4,030.6,13.8,0000.0,0003.26,0013.34,0001.97
2023-10-19 08:18:00,SystemResetWarning,0833.3,5.01,000.00,029.0,027.5,000.0,037.4,030.6,13.8,0000.0,0003.26,0012.98,0002.00
2023-10-19 08:19:00,SystemResetWarning,0833.3,5.00,000.00,029.0,027.5,000.0,037.4,030.6,13.8,0000.0,0003.27,0013.07,0002.01
2023-10-19 08:20:00,SystemResetWarning,0833.3,4.99,000.00,029.0,027.5,000.0,037.4,030.6,13.8,0000.0,0003.32,0013.28,0002.01
2023-10-19 08:21:00,SystemResetWarning,0833.2,5.00,000.00,029.0,027.5,000.0,037.4,030.6,13.8,0000.0,0003.35,0013.07,0002.01
2023-10-19 08:22:00,SystemResetWarning,0833.2,5.00,000.00,029.0,027.5,000.0,037.5,030.6,13.8,0000.0,0003.34,0013.38,0002.02
2023-10-19 08:23:00,SystemResetWarning,0833.2,5.00,000.00,029.0,027.5,000.0,037.4,030.6,13.7,0000.0,0003.33,0012.19,0002.02
2023-10-19 08:24:00,SystemResetWarning,0833.2,5.00,000.00,029.0,027.6,000.0,037.4,030.7,13.5,0000.0,0003.32,0011.63,0002.02
2023-10-19 08:25:00,SystemResetWarning,0833.2,5.00,000.00,029.0,027.6,000.0,037.5,030.7,13.4,0000.0,0003.37,0011.29,0002.02
2023-10-19 08:26:00,SystemResetWarning,0833.3,5.00,000.00,029.0,027.6,000.0,037.5,030.7,13.5,0000.0,0003.42,0010.64,0002.04
2023-10-19 08:27:00,SystemResetWarning,0833.2,5.00,000.00,029.0,027.6,000.0,037.5,030.7,13.6,0000.0,0003.45,0010.81,0002.05
2023-10-19 08:28:00,SystemResetWarning,0833.2,5.00,000.00,029.0,027.6,000.0,037.5,030.7,13.7,0000.0,0003.45,0010.22,0002.03
2023-10-19 08:29:00,SystemResetWarning,0833.2,5.01,000.00,029.0,027.6,000.0,037.4,030.7,13.6,0000.0,0003.42,0009.98,0001.99
2023-10-19 08:30:00,SystemResetWarning,0833.2,5.00,000.00,029.1,027.6,000.0,037.5,030.7,13.6,0000.0,0003.36,0009.81,0001.93
2023-10-19 08:31:00,SystemResetWarning,0833.2,5.00,000.00,029.1,027.6,000.0,037.5,030.7,13.6,0000.0,0003.27,0009.30,0001.89
2023-10-19 08:32:00,SystemResetWarning,0833.2,5.00,000.00,029.1,027.6,000.0,037.5,030.7,13.5,0000.0,0003.18,0008.84,0001.87
2023-10-19 08:33:00,SystemResetWarning,0833.2,5.00,000.00,029.1,027.6,000.0,037.5,030.7,13.5,0000.0,0003.17,0008.18,0001.83
2023-10-19 08:34:00,SystemResetWarning,0833.2,5.00,000.00,029.1,027.6,000.0,037.5,030.7,13.5,0000.0,0003.19,0008.17,0001.82
2023-10-19 08:35:00,SystemResetWarning,0833.2,5.00,000.00,029.1,027.6,000.0,037.5,030.7,13.5,0000.0,0003.25,0008.02,0001.83
2023-10-19 08:36:00,SystemResetWarning,0833.2,5.00,000.00,029.1,027.7,000.0,037.5,030.7,13.5,0000.0,0003.21,0008.30,0001.83
2023-10-19 08:37:00,SystemResetWarning,0833.2,5.00,000.00,029.1,027.7,000.0,037.5,030.7,13.5,0000.0,0003.12,0007.87,0001.81
2023-10-19 08:38:00,SystemResetWarning,0833.3,5.00,000.00,029.1,027.7,000.0,037.5,030.8,13.5,0000.0,0003.10,0007.55,0001.81
2023-10-19 08:39:00,SystemResetWarning,0833.2,5.00,000.00,029.1,027.7,000.0,037.5,030.7,13.5,0000.0,0003.10,0007.56,0001.81
2023-10-19 08:40:00,SystemResetWarning,0833.3,4.99,000.00,029.1,027.7,000.0,037.5,030.8,13.4,0000.0,0003.11,0007.66,0001.84
2023-10-19 08:41:00,SystemResetWarning,0833.3,5.00,000.00,029.1,027.7,000.0,037.5,030.8,13.4,0000.0,0003.15,0007.63,0001.90
2023-10-19 08:42:00,SystemResetWarning,0833.3,5.00,000.00,029.1,027.7,000.0,037.5,030.8,13.4,0000.0,0003.24,0008.12,0001.97
2023-10-19 08:43:00,SystemResetWarning,0833.3,5.00,000.00,029.1,027.7,000.0,037.5,030.8,13.4,0000.0,0003.31,0009.25,0002.02
2023-10-19 08:44:00,SystemResetWarning,0833.3,4.99,000.00,029.1,027.7,000.0,037.5,030.8,13.4,0000.0,0003.32,0009.57,0002.06
2023-10-19 08:45:00,SystemResetWarning,0833.3,5.00,000.00,029.1,027.7,000.0,037.5,030.8,13.4,0000.0,0003.33,0010.05,0002.09
2023-10-19 08:46:00,SystemResetWarning,0833.3,5.00,000.00,029.1,027.7,000.0,037.6,030.8,13.4,0000.0,0003.32,0011.08,0002.11
2023-10-19 08:47:00,SystemResetWarning,0833.3,5.00,000.00,029.1,027.7,000.0,037.6,030.8,13.4,0000.0,0003.42,0012.04,0002.14
2023-10-19 08:48:00,SystemResetWarning,0833.3,5.00,000.00,029.2,027.7,000.0,037.6,030.8,13.4,0000.0,0003.50,0012.24,0002.18
2023-10-19 08:49:00,SystemResetWarning,0833.2,5.00,000.00,029.2,027.7,000.0,037.6,030.8,13.4,0000.0,0003.58,0012.54,0002.23
2023-10-19 08:50:00,SystemResetWarning,0833.2,5.00,000.00,029.2,027.7,000.0,037.6,030.8,13.4,0000.0,0003.64,0012.63,0002.30
2023-10-19 08:51:00,SystemResetWarning,0833.2,5.01,000.00,029.2,027.7,000.0,037.6,030.8,13.4,0000.0,0003.70,0013.25,0002.32
2023-10-19 08:52:00,SystemResetWarning,0833.2,4.98,000.00,029.2,027.7,000.0,037.6,030.8,13.4,0000.0,0003.73,0013.80,0002.33
2023-10-19 08:53:00,SystemResetWarning,0833.2,5.00,000.00,029.2,027.7,000.0,037.6,030.8,13.4,0000.0,0003.72,0013.94,0002.32
2023-10-19 08:54:00,SystemResetWarning,0833.3,5.01,000.00,029.2,027.7,000.0,037.6,030.8,13.4,0000.0,0003.78,0013.44,0002.32
2023-10-19 08:55:00,SystemResetWarning,0833.2,5.01,000.00,029.2,027.7,000.0,037.6,030.7,13.4,0000.0,0003.86,0013.53,0002.35
2023-10-19 08:56:00,SystemResetWarning,0833.2,5.01,000.00,029.1,027.7,000.0,037.6,030.7,13.5,0000.0,0003.89,0013.52,0002.37
2023-10-19 08:57:00,SystemResetWarning,0833.2,5.01,000.00,029.1,027.7,000.0,037.6,030.8,13.4,0000.0,0003.90,0012.63,0002.40
2023-10-19 08:58:00,SystemResetWarning,0833.2,5.00,000.00,029.1,027.7,000.0,037.6,030.8,13.5,0000.0,0003.89,0011.35,0002.43
2023-10-19 08:59:00,SystemResetWarning,0833.2,5.00,000.00,029.1,027.7,000.0,037.6,030.8,13.5,0000.0,0003.88,0011.02,0002.44
